Вернуться в каталог

STARLINK-34232

АктивенСвязьVLEO
NORAD 65019·PAYLOAD·🇺🇸 United States

Запущен Jul 30, 2025 с Cape Canaveral Space Force Station

Loading…

Ближайшие Пролёты (ближайшие 24 часа)

TLE

СвежийSource: CelesTrak SupGP

Эпоха: Sep 15, 2026, 02:24 UTC

1 65019C 25161E   26258.10048611  .00063670  00000+0  18827-2 0  2587
2 65019  53.1569 133.0915 0001260  83.2986  78.4922 15.34331836    19

Отслеживайте STARLINK-34232 в реальном времени с AllMySat

Download on the App Store